Location: Mercogliano
(40.9167°N, 14.7333°E)
Time: 07:39:30
(UTC+00:00)

CZ-2C R/B - Pass Details

Date: 25 January 2021
Orbit: 785 x 870 km, 98.2° (Epoch: 08 March)

Event Time Altitude Azimuth Distance (km) Brightness Sun altitude
Exits shadow 19:32:32 18° 331° (NNW) 1,995 4.9 -38.2°
Maximum altitude 19:34:59 24° 295° (WNW) 1,711 4.7 -38.7°
Drops below altitude 10° 19:39:22 10° 244° (WSW) 2,512 5.6 -39.5°
Sets 19:42:10 0° 231° (SW) 3,447 6.3 -40.0°
